FW5354 Weather Reports


Display with metric or nautical units.
time (UTC)temp
F
wind
direction
speed
MPH
gust
MPH
rain 1hr
in
rain 24hr
in
rain mn
in
humidity
%
barometer
mb
20260906143113 87 105 0.0 0.0 0.00 0.00 0.00 72 1011.8
20260906141557 86 105 0.0 0.0 0.00 0.00 0.00 70 1011.8
20260906140100 85 108 0.0 0.0 0.00 0.00 0.00 68 1011.7
20260906134556 83 106 0.0 0.0 0.00 0.00 0.00 63 1011.5
20260906133104 81 109 0.0 0.0 0.00 0.00 0.00 51 1011.5
20260906131559 81 109 0.0 0.0 0.00 0.00 0.00 47 1011.4
20260906130052 80 109 0.0 0.0 0.00 0.00 0.00 43 1011.2
20260906124549 0 0.0 0.0 0.00 0.00 0.00 1011.0
20260906123044 0 0.0 0.0 0.00 0.00 0.00 1010.8
20260906121545 0 0.0 0.0 0.00 0.00 0.00 1010.7
20260906120037 0 0.0 0.0 0.00 0.00 0.00 1010.5
20260906114535 0 0.0 0.0 0.00 0.00 0.00 1010.2
20260906113041 0 0.0 0.0 0.00 0.00 0.00 1010.0
20260906111530 0 0.0 0.0 0.00 0.00 0.00 1010.1
20260906110021 0 0.0 0.0 0.00 0.00 0.00 1010.1
20260906104517 0 0.0 0.0 0.00 0.00 0.00 1010.0
20260906103012 0 0.0 0.0 0.00 0.00 0.00 1010.0
20260906101511 0 0.0 0.0 0.00 0.00 0.00 1009.7
20260906100007 0 0.0 0.0 0.00 0.00 0.00 1009.8
20260906094502 0 0.0 0.0 0.00 0.00 0.00 1009.6
20260906093116 0 0.0 0.0 0.00 0.00 0.00 1009.5
20260906091557 0 0.0 0.0 0.00 0.00 0.00 1009.6
20260906090050 0 0.0 0.0 0.00 0.00 0.00 1009.4
20260906084546 0 0.0 0.0 0.00 0.00 0.00 1009.4
20260906083047 0 0.0 0.0 0.00 0.00 0.00 1009.4
20260906081542 0 0.0 0.0 0.00 0.00 0.00 1009.5
20260906080035 0 0.0 0.0 0.00 0.00 0.00 1009.5
20260906074534 0 0.0 0.0 0.00 0.00 0.00 1009.6
20260906073025 0 0.0 0.0 0.00 0.00 0.00 1009.6
20260906071524 0 0.0 0.0 0.00 0.00 0.00 1009.8
20260906070021 0 0.0 0.0 0.00 0.00 0.00 1009.9
20260906064515 0 0.0 0.0 0.00 0.00 0.00 1010.1
20260906063011 0 0.0 0.0 0.00 0.00 0.00 1010.1
20260906061506 0 0.0 0.0 0.00 0.00 0.00 1010.0
20260906060006 0 0.0 0.0 0.00 0.00 0.00 1010.0
20260906054558 0 0.0 0.0 0.00 0.00 0.00 1009.9
20260906053054 81 113 0.0 0.0 0.00 0.00 0.00 69 1010.1
20260906051555 82 109 0.0 0.0 0.00 0.00 0.00 69 1010.0
20260906050113 82 109 0.0 0.0 0.00 0.00 0.00 69 1010.1
20260906044555 82 109 0.0 0.0 0.00 0.00 0.00 68 1010.0
20260906043105 81 109 0.0 0.0 0.00 0.00 0.00 66 1010.1
20260906041551 81 109 0.0 0.0 0.00 0.00 0.00 63 1010.1
20260906040050 81 109 0.0 0.0 0.00 0.00 0.00 64 1010.2
20260906034549 81 109 0.0 0.0 0.00 0.00 0.00 65 1010.3
20260906033048 81 109 0.0 0.0 0.00 0.00 0.00 66 1010.2
20260906031547 82 109 0.0 0.0 0.00 0.00 0.00 67 1010.2
20260906030047 82 109 0.0 0.0 0.00 0.00 0.00 68 1009.9
20260906024544 82 110 0.0 0.0 0.00 0.00 0.00 68 1009.9
20260906023044 82 154 0.0 0.0 0.00 0.00 0.00 68 1009.7
20260906021559 82 154 0.0 0.0 0.00 0.00 0.00 68 1009.5
20260906020043 82 155 0.0 0.0 0.00 0.00 0.00 68 1009.1
20260906014542 82 155 0.0 0.0 0.00 0.00 0.00 69 1008.9
20260906013040 82 162 0.0 0.0 0.00 0.00 0.00 70 1008.8
20260906011540 82 116 0.0 0.0 0.00 0.00 0.00 71 1008.8
20260906010041 82 151 0.0 0.0 0.00 0.00 0.00 72 1008.8
20260906004539 83 126 0.0 0.0 0.00 0.00 0.00 73 1009.0
20260906003034 84 148 0.0 0.0 0.00 0.00 0.00 72 1009.1
20260906001532 84 159 0.0 0.0 0.00 0.00 0.00 71 1009.2
20260906000032 85 167 0.0 0.0 0.00 0.00 0.00 71 1009.2
20260905234527 86 154 0.0 0.0 0.00 0.00 0.00 67 1009.2
20260905233028 87 171 0.0 0.0 0.00 0.00 0.00 67 1009.4
20260905231526 87 143 0.0 0.0 0.00 0.00 0.00 68 1009.6
20260905230023 88 175 0.0 0.0 0.00 0.00 0.00 67 1009.2
20260905224525 88 129 0.0 0.0 0.00 0.00 0.00 64 1009.1
20260905223022 88 143 0.0 0.0 0.00 0.00 0.00 65 1008.8
20260905221521 88 129 0.0 0.0 0.00 0.00 0.00 64 1008.8
20260905220022 89 118 0.0 0.0 0.00 0.00 0.00 65 1008.9
20260905214516 90 117 0.0 0.0 0.00 0.00 0.00 64 1008.8
20260905213015 90 121 0.0 0.0 0.00 0.00 0.00 66 1008.8
20260905211520 93 110 0.0 0.0 0.00 0.00 0.00 61 1009.0
20260905210016 95 129 0.0 0.0 0.00 0.00 0.00 58 1009.1
20260905204515 98 151 0.0 0.0 0.00 0.00 0.00 52 1008.8
20260905203014 99 154 0.0 0.0 0.00 0.00 0.00 48 1008.8
20260905201606 99 146 0.0 0.0 0.00 0.00 0.00 47 1009.0
20260905200100 98 174 0.0 0.0 0.00 0.00 0.00 47 1009.3
20260905194558 98 137 0.0 0.0 0.00 0.00 0.00 48 1009.4
20260905193053 97 193 0.0 0.0 0.00 0.00 0.00 50 1009.6
20260905191554 97 160 0.0 0.0 0.00 0.00 0.00 51 1009.9
20260905190048 96 153 0.0 0.0 0.00 0.00 0.00 51 1010.0
20260905184601 96 131 0.0 0.0 0.00 0.00 0.00 52 1010.0
20260905183042 95 160 0.0 0.0 0.00 0.08 0.00 53 1010.3
20260905181541 97 122 0.0 0.0 0.00 0.08 0.00 52 1010.7
20260905180044 97 122 0.0 0.0 0.00 0.08 0.00 52 1011.0
20260905174545 97 164 0.0 0.0 0.00 0.08 0.00 52 1011.3
20260905173036 97 128 0.0 0.0 0.00 0.77 0.00 51 1011.6
20260905171536 94 124 0.0 0.0 0.00 0.77 0.00 56 1011.7
20260905170034 93 155 0.0 0.0 0.00 0.77 0.00 58 1011.9
20260905164533 93 162 0.0 0.0 0.00 0.77 0.00 58 1011.9
20260905163029 0 0.0 0.0 0.00 0.77 0.00 1012.0
20260905161528 0 0.0 0.0 0.00 0.77 0.00 1012.1
20260905160040 0 0.0 0.0 0.00 0.77 0.00 1012.0
20260905154521 0 0.0 0.0 0.00 0.77 0.00 1012.0
20260905153021 0 0.0 0.0 0.00 0.77 0.00 1012.0
20260905151523 0 0.0 0.0 0.00 0.77 0.00 1012.1
20260905150027 0 0.0 0.0 0.00 0.77 0.00 1012.0
20260905144539 0 0.0 0.0 0.00 0.77 0.00 1012.0